When you browse on this site, cookies collect data to enhance your experience and personalize the content and advertising you see.
Visit our Privacy Policy to learn more. By continuing to use the site, you agree to this use of cookies and data.
  • In Österreich
  • Länderverzeichnis
  • Für 7 Tage
  • Wassertemperatur
  • Wetterkarte
  • News
  • Widgets
  • user-avatar
    Anmelden

    Stündliche Wetter Biskira

    Heute, 6 Juni, Samstag

    Zeit Temperatur Niederschläge Wind Luftdruck Luftfeuchtigkeit
    00:00 +29°C° 0 mm 5 m/S 751 mmHg 30%
    01:00 +28°C° 0 mm 4 m/S 751 mmHg 33%
    02:00 +28°C° 0 mm 4 m/S 750 mmHg 36%
    03:00 +27°C° 0 mm 4 m/S 750 mmHg 40%
    04:00 +27°C° 0 mm 4 m/S 750 mmHg 40%
    05:00 +27°C° 0 mm 4 m/S 751 mmHg 40%
    06:00 +28°C° 0 mm 4 m/S 751 mmHg 41%
    07:00 +29°C° 0 mm 4 m/S 751 mmHg 37%
    08:00 +30°C° 0 mm 3 m/S 751 mmHg 33%
    09:00 +31°C° 0 mm 3 m/S 751 mmHg 29%
    10:00 +33°C° 0 mm 3 m/S 751 mmHg 26%
    11:00 +34°C° 0 mm 3 m/S 751 mmHg 23%
    12:00 +35°C° 0 mm 2 m/S 751 mmHg 19%
    13:00 +36°C° 0 mm 2 m/S 750 mmHg 17%
    14:00 +36°C° 0 mm 2 m/S 750 mmHg 15%
    15:00 +37°C° 0 mm 2 m/S 749 mmHg 13%
    16:00 +37°C° 0 mm 2 m/S 749 mmHg 13%
    17:00 +37°C° 0 mm 3 m/S 748 mmHg 13%
    18:00 +37°C° 0 mm 3 m/S 748 mmHg 13%
    19:00 +36°C° 0 mm 3 m/S 748 mmHg 14%
    20:00 +36°C° 0 mm 2 m/S 748 mmHg 15%
    21:00 +35°C° 0 mm 2 m/S 748 mmHg 17%
    22:00 +34°C° 0 mm 2 m/S 748 mmHg 17%
    23:00 +34°C° 0 mm 3 m/S 747 mmHg 18%

    Morgen, 7 Juni, Sonntag

    Zeit Temperatur Niederschläge Wind Luftdruck Luftfeuchtigkeit
    00:00 +33°C° 0 mm 3 m/S 747 mmHg 18%
    01:00 +33°C° 0 mm 3 m/S 747 mmHg 19%
    02:00 +33°C° 0 mm 4 m/S 747 mmHg 20%
    03:00 +32°C° 0 mm 4 m/S 747 mmHg 20%
    04:00 +33°C° 0 mm 5 m/S 747 mmHg 21%
    05:00 +33°C° 0 mm 7 m/S 747 mmHg 21%
    06:00 +33°C° 0 mm 8 m/S 747 mmHg 21%
    07:00 +34°C° 0 mm 8 m/S 747 mmHg 20%
    08:00 +36°C° 0 mm 7 m/S 747 mmHg 20%
    09:00 +38°C° 0 mm 7 m/S 747 mmHg 19%
    10:00 +39°C° 0 mm 6 m/S 746 mmHg 18%
    11:00 +38°C° 0 mm 4 m/S 746 mmHg 18%
    12:00 +39°C° 0 mm 3 m/S 746 mmHg 17%
    13:00 +41°C° 0 mm 4 m/S 745 mmHg 16%
    14:00 +42°C° 0 mm 5 m/S 745 mmHg 16%
    15:00 +44°C° 0 mm 6 m/S 745 mmHg 15%
    16:00 +41°C° 0 mm 7 m/S 745 mmHg 16%
    17:00 +40°C° 0 mm 8 m/S 745 mmHg 18%
    18:00 +39°C° 0 mm 9 m/S 745 mmHg 19%
    19:00 +38°C° 0 mm 9 m/S 746 mmHg 23%
    20:00 +37°C° 0 mm 8 m/S 747 mmHg 27%
    21:00 +34°C° 0 mm 8 m/S 748 mmHg 31%
    22:00 +34°C° 0 mm 7 m/S 748 mmHg 32%
    23:00 +33°C° 0 mm 6 m/S 748 mmHg 33%

    übermorgen, 8 Juni, Montag

    Zeit Temperatur Niederschläge Wind Luftdruck Luftfeuchtigkeit
    00:00 +32°C° 0 mm 5 m/S 748 mmHg 34%
    01:00 +32°C° 0 mm 4 m/S 747 mmHg 34%
    02:00 +30°C° 0 mm 4 m/S 747 mmHg 34%
    03:00 +30°C° 0 mm 3 m/S 747 mmHg 33%
    04:00 +30°C° 0 mm 3 m/S 747 mmHg 34%
    05:00 +30°C° 0 mm 3 m/S 748 mmHg 34%
    06:00 +30°C° 0 mm 3 m/S 748 mmHg 35%
    07:00 +32°C° 0 mm 4 m/S 748 mmHg 32%
    08:00 +33°C° 0 mm 4 m/S 748 mmHg 28%
    09:00 +34°C° 0 mm 4 m/S 748 mmHg 25%
    10:00 +35°C° 0 mm 5 m/S 748 mmHg 23%
    11:00 +36°C° 0 mm 5 m/S 748 mmHg 21%
    12:00 +37°C° 0 mm 5 m/S 747 mmHg 18%
    13:00 +37°C° 0 mm 5 m/S 747 mmHg 18%
    14:00 +37°C° 0 mm 4 m/S 747 mmHg 19%
    15:00 +37°C° 0 mm 4 m/S 746 mmHg 19%
    16:00 +37°C° 0 mm 5 m/S 746 mmHg 19%
    17:00 +36°C° 0 mm 6 m/S 746 mmHg 20%
    18:00 +35°C° 0 mm 6 m/S 746 mmHg 20%
    19:00 +34°C° 0 mm 7 m/S 747 mmHg 23%
    20:00 +34°C° 0 mm 8 m/S 747 mmHg 25%
    21:00 +33°C° 0 mm 9 m/S 748 mmHg 27%
    22:00 +32°C° 0.1 mm 8 m/S 748 mmHg 30%
    23:00 +31°C° 0.1 mm 8 m/S 748 mmHg 33%

    9 Juni, Dienstag

    Zeit Temperatur Niederschläge Wind Luftdruck Luftfeuchtigkeit
    00:00 +31°C° 0.1 mm 8 m/S 749 mmHg 36%
    01:00 +29°C° 0.1 mm 6 m/S 749 mmHg 38%
    02:00 +29°C° 0.1 mm 5 m/S 749 mmHg 40%
    03:00 +28°C° 0.1 mm 3 m/S 748 mmHg 43%
    04:00 +28°C° 0 mm 4 m/S 749 mmHg 42%
    05:00 +28°C° 0 mm 4 m/S 749 mmHg 41%
    06:00 +27°C° 0 mm 5 m/S 749 mmHg 40%
    07:00 +29°C° 0 mm 5 m/S 749 mmHg 37%
    08:00 +30°C° 0 mm 5 m/S 749 mmHg 35%
    09:00 +32°C° 0 mm 4 m/S 749 mmHg 32%
    10:00 +33°C° 0 mm 4 m/S 749 mmHg 27%
    11:00 +34°C° 0 mm 4 m/S 749 mmHg 22%
    12:00 +35°C° 0 mm 4 m/S 749 mmHg 17%
    13:00 +36°C° 0 mm 4 m/S 749 mmHg 16%
    14:00 +36°C° 0 mm 5 m/S 748 mmHg 14%
    15:00 +37°C° 0 mm 5 m/S 748 mmHg 13%
    16:00 +36°C° 0 mm 5 m/S 748 mmHg 15%
    17:00 +35°C° 0 mm 6 m/S 748 mmHg 16%
    18:00 +35°C° 0 mm 6 m/S 749 mmHg 18%
    19:00 +34°C° 0 mm 5 m/S 749 mmHg 21%
    20:00 +33°C° 0 mm 5 m/S 750 mmHg 24%
    21:00 +33°C° 0 mm 4 m/S 751 mmHg 27%
    22:00 +32°C° 0 mm 4 m/S 751 mmHg 29%
    23:00 +31°C° 0 mm 3 m/S 751 mmHg 30%

    10 Juni, Mittwoch

    Zeit Temperatur Niederschläge Wind Luftdruck Luftfeuchtigkeit
    00:00 +30°C° 0 mm 3 m/S 750 mmHg 31%
    01:00 +30°C° 0 mm 3 m/S 750 mmHg 35%
    02:00 +29°C° 0 mm 3 m/S 750 mmHg 39%
    03:00 +28°C° 0 mm 3 m/S 750 mmHg 42%
    04:00 +28°C° 0 mm 3 m/S 751 mmHg 46%
    05:00 +27°C° 0 mm 3 m/S 751 mmHg 49%
    06:00 +27°C° 0 mm 3 m/S 751 mmHg 52%
    07:00 +28°C° 0 mm 3 m/S 751 mmHg 49%
    08:00 +29°C° 0 mm 3 m/S 751 mmHg 46%
    09:00 +30°C° 0 mm 3 m/S 751 mmHg 43%
    10:00 +31°C° 0 mm 3 m/S 751 mmHg 39%
    11:00 +32°C° 0 mm 2 m/S 751 mmHg 35%
    12:00 +34°C° 0 mm 2 m/S 751 mmHg 31%
    13:00 +34°C° 0 mm 2 m/S 750 mmHg 30%
    14:00 +34°C° 0 mm 1 m/S 750 mmHg 28%
    15:00 +34°C° 0 mm 1 m/S 750 mmHg 27%
    16:00 +34°C° 0.2 mm 3 m/S 750 mmHg 29%
    17:00 +34°C° 0.2 mm 5 m/S 750 mmHg 31%
    18:00 +33°C° 0.2 mm 7 m/S 750 mmHg 32%
    19:00 +33°C° 0.4 mm 6 m/S 750 mmHg 32%
    20:00 +32°C° 0.4 mm 5 m/S 751 mmHg 32%
    21:00 +32°C° 0.4 mm 4 m/S 751 mmHg 32%
    22:00 +29°C° 0.7 mm 4 m/S 751 mmHg 38%
    23:00 +28°C° 0.7 mm 3 m/S 752 mmHg 44%

    11 Juni, Donnerstag

    Zeit Temperatur Niederschläge Wind Luftdruck Luftfeuchtigkeit
    00:00 +26°C° 0.7 mm 3 m/S 752 mmHg 50%
    01:00 +26°C° 0.2 mm 2 m/S 751 mmHg 50%
    02:00 +26°C° 0.2 mm 2 m/S 751 mmHg 50%
    03:00 +26°C° 0.2 mm 1 m/S 751 mmHg 51%
    04:00 +26°C° 0 mm 1 m/S 751 mmHg 52%
    05:00 +26°C° 0 mm 1 m/S 751 mmHg 52%
    06:00 +26°C° 0 mm 1 m/S 751 mmHg 53%
    07:00 +27°C° 0 mm 1 m/S 751 mmHg 50%
    08:00 +28°C° 0 mm 2 m/S 751 mmHg 46%
    09:00 +29°C° 0 mm 2 m/S 751 mmHg 42%
    10:00 +30°C° 0 mm 2 m/S 751 mmHg 39%
    11:00 +31°C° 0 mm 2 m/S 750 mmHg 36%
    12:00 +32°C° 0 mm 2 m/S 750 mmHg 33%
    13:00 +34°C° 0 mm 2 m/S 749 mmHg 32%
    14:00 +34°C° 0 mm 2 m/S 749 mmHg 30%
    15:00 +35°C° 0 mm 3 m/S 748 mmHg 29%
    16:00 +34°C° 0.1 mm 4 m/S 749 mmHg 28%
    17:00 +34°C° 0.1 mm 5 m/S 749 mmHg 27%
    18:00 +33°C° 0.1 mm 6 m/S 749 mmHg 27%
    19:00 +33°C° 0 mm 4 m/S 749 mmHg 26%
    20:00 +33°C° 0 mm 3 m/S 750 mmHg 26%
    21:00 +31°C° 0 mm 1 m/S 750 mmHg 25%
    22:00 +31°C° 0 mm 2 m/S 750 mmHg 27%
    23:00 +31°C° 0 mm 2 m/S 750 mmHg 28%
    Mehr zeigen